FW6537 Weather Reports


time (UTC)temp
F
wind
direction
speed
knots
gust
knots
rain 1hr
in
rain 24hr
in
rain mn
in
humidity
%
barometer
mb
20260506131639 45 126 1.7 3.5 0.15 0.70 0.47 95 1007.5
20260506130136 45 147 0.0 2.6 0.12 0.65 0.42 95 1007.6
20260506124650 45 136 0.0 1.7 0.10 0.62 0.39 95 1007.2
20260506123122 45 152 0.0 0.9 0.07 0.58 0.35 95 1007.0
20260506121641 45 157 0.9 3.5 0.08 0.55 0.32 95 1007.0
20260506120131 45 145 0.9 2.6 0.09 0.53 0.30 95 1007.0
20260506114627 45 131 0.9 4.3 0.11 0.52 0.29 95 1007.1
20260506113128 46 140 1.7 2.6 0.13 0.51 0.28 95 1007.4
20260506111642 46 135 0.0 0.9 0.10 0.47 0.24 95 1007.6
20260506110135 45 101 0.0 0.9 0.08 0.44 0.21 95 1007.4
20260506104634 45 101 0.0 0.9 0.07 0.41 0.18 95 1007.6
20260506103132 45 141 0.0 0.9 0.05 0.37 0.14 95 1007.2
20260506101629 45 142 0.0 0.0 0.05 0.36 0.13 94 1007.3
20260506100130 45 141 0.0 0.9 0.05 0.36 0.13 94 1007.5
20260506094630 45 135 0.0 1.7 0.05 0.34 0.11 94 1007.7
20260506093124 46 118 0.0 1.7 0.04 0.32 0.09 94 1008.1
20260506091639 46 109 1.7 4.3 0.04 0.31 0.08 94 1007.3
20260506090134 46 158 1.7 4.3 0.05 0.31 0.08 94 1008.0
20260506084622 47 111 0.9 4.3 0.04 0.29 0.06 94 1008.2
20260506083125 48 168 2.6 5.2 0.03 0.28 0.05 94 1008.1
20260506081646 48 156 0.9 4.3 0.02 0.27 0.04 95 1007.9
20260506080125 48 131 0.9 1.7 0.01 0.26 0.03 95 1008.1
20260506073143 48 126 0.0 0.0 0.00 0.25 0.02 95 1007.7
20260506071638 48 126 0.0 0.0 0.02 0.25 0.02 95 1007.6
20260506070153 48 126 0.0 0.0 0.02 0.25 0.02 95 1007.4
20260506061640 48 128 0.0 0.9 0.00 0.23 0.00 95 1008.3
20260506060135 49 108 0.9 2.6 0.00 0.23 0.00 95 1008.4
20260506050139 49 117 0.0 0.0 0.00 0.23 0.00 94 1008.9
20260506044645 49 117 0.0 0.0 0.00 0.23 0.00 94 1009.1
20260506043159 49 117 0.0 0.0 0.01 0.23 0.00 94 1009.1
20260506041635 49 116 0.0 0.0 0.03 0.23 0.00 94 1009.5
20260506040125 49 124 0.0 0.0 0.04 0.23 0.00 94 1009.3
20260506034623 49 124 0.0 0.0 0.05 0.23 0.23 94 1009.7
20260506033135 49 82 0.0 0.0 0.06 0.22 0.22 93 1009.7
20260506031627 49 117 0.0 0.0 0.05 0.20 0.20 93 1009.9
20260506030126 49 117 0.0 0.0 0.06 0.19 0.19 93 1009.7
20260506024640 49 116 0.0 0.0 0.05 0.18 0.18 93 1009.5
20260506023135 49 116 0.0 0.9 0.04 0.16 0.16 92 1009.7
20260506021628 49 89 0.0 1.7 0.04 0.15 0.15 92 1009.7
20260506020142 49 84 0.0 1.7 0.04 0.13 0.13 91 1008.9
20260506014637 49 110 0.9 1.7 0.04 0.13 0.13 90 1009.4
20260506013131 50 144 0.9 4.3 0.03 0.12 0.12 89 1009.4
20260506011627 51 133 0.9 3.5 0.02 0.11 0.11 85 1009.3
20260506010135 53 168 0.9 5.2 0.00 0.09 0.09 81 1009.1
20260506003145 57 133 0.9 3.5 0.00 0.09 0.09 71 1009.0
20260506001632 58 124 0.9 4.3 0.00 0.09 0.09 70 1008.3
20260506000139 58 123 0.9 6.1 0.00 0.09 0.09 70 1008.2
20260505234629 59 110 0.9 5.2 0.00 0.09 0.09 71 1007.5
20260505233140 60 60 1.7 7.0 0.00 0.09 0.09 70 1007.3
20260505231635 61 139 0.0 1.7 0.00 0.09 0.09 75 1006.6
20260505230126 62 130 0.0 3.5 0.00 0.09 0.09 78 1006.3
20260505224636 62 157 1.7 4.3 0.00 0.09 0.09 79 1006.1
20260505223145 62 136 0.0 5.2 0.00 0.09 0.09 80 1005.5
20260505221639 63 98 1.7 4.3 0.04 0.09 0.09 82 1005.0
20260505220126 64 141 1.7 4.3 0.05 0.09 0.09 85 1004.9
20260505214621 63 125 0.0 0.9 0.07 0.09 0.09 90 1004.9
20260505213121 63 90 0.9 1.7 0.07 0.09 0.09 88 1004.5
20260505211645 64 86 0.0 2.6 0.03 0.05 0.05 85 1004.5
20260505210147 67 68 0.0 1.7 0.02 0.04 0.04 78 1004.5
20260505204638 68 77 0.9 5.2 0.00 0.02 0.02 72 1004.1
20260505203138 69 15 1.7 2.6 0.00 0.02 0.02 70 1004.0
20260505201631 70 103 0.0 4.3 0.00 0.02 0.02 71 1004.1
20260505200129 70 68 0.9 5.2 0.00 0.02 0.02 70 1004.0
20260505194622 67 87 0.9 3.5 0.00 0.02 0.02 77 1003.9
20260505193136 65 91 1.7 3.5 0.00 0.02 0.02 81 1004.1
20260505191633 64 91 0.9 3.5 0.02 0.02 0.02 85 1004.3
20260505190130 63 83 0.0 0.9 0.02 0.02 0.02 86 1004.4
20260505184622 63 58 0.9 4.3 0.02 0.02 0.02 83 1004.4
20260505183125 64 79 5.2 13.0 0.02 0.02 0.02 79 1005.0
20260505181637 70 65 5.2 20.0 0.00 0.00 0.00 63 1004.2
20260505180129 74 110 2.6 11.3 0.00 0.00 0.00 52 1003.3
20260505174631 73 60 2.6 7.0 0.00 0.00 0.00 53 1003.3
20260505173130 73 63 2.6 8.7 0.00 0.00 0.00 54 1003.3
20260505171622 74 308 1.7 8.7 0.00 0.00 0.00 50 1003.2
20260505170139 75 90 2.6 7.0 0.00 0.00 0.00 50 1003.3
20260505164636 75 56 2.6 11.3 0.00 0.00 0.00 51 1003.0
20260505163129 74 97 2.6 10.4 0.00 0.00 0.00 51 1003.0
20260505160126 75 65 0.9 7.0 0.00 0.00 0.00 52 1003.0
20260505153147 74 33 2.6 6.1 0.00 0.00 0.00 52 1003.4
20260505151625 74 90 0.9 7.0 0.00 0.00 0.00 52 1003.5
20260505150124 76 73 3.5 10.4 0.00 0.00 0.00 50 1003.4
20260505140135 74 78 2.6 8.7 0.00 0.00 0.00 51 1002.8